�N����,����,�~����,�C��,���x,�C��,����,���ϕ���,�ő�u�ԕ���,�ő厞����,���˗�,�I�_���x,�n�����x,�ő啗���N��,DTYPE
"20/06/16","00:10",0.0,20.4,85.6,998.6,296.3,0.6,1.3,331.7,0.00,17.9,23.8,"00:08:56",1
"20/06/16","00:20",0.0,20.2,86.0,998.4,276.0,0.7,1.1,244.7,0.00,17.8,23.6,"00:13:44",1
"20/06/16","00:30",0.0,20.2,86.4,998.9,299.0,0.8,1.3,320.3,0.00,17.9,23.5,"00:28:40",1
"20/06/16","00:40",0.0,20.1,86.7,998.9,300.9,1.0,1.4,319.3,0.00,17.9,23.3,"00:32:00",1
"20/06/16","00:50",0.0,20.0,87.0,998.9,288.2,0.8,1.2,265.3,0.00,17.8,23.3,"00:44:48",1
"20/06/16","01:00",0.0,20.0,87.4,998.6,325.2,0.8,1.3,317.6,0.00,17.9,23.3,"00:50:32",1
"20/06/16","01:10",0.0,19.9,87.7,998.9,275.9,0.8,1.6,264.9,0.00,17.8,23.4,"01:08:16",1
"20/06/16","01:20",0.0,19.8,88.0,998.9,295.7,1.0,1.4,307.9,0.00,17.8,23.1,"01:14:08",1
"20/06/16","01:30",0.0,19.8,88.3,998.6,314.5,1.0,1.3,321.7,0.00,17.8,23.2,"01:24:40",1
"20/06/16","01:40",0.0,19.7,88.5,998.6,297.6,0.7,1.1,320.6,0.00,17.8,23.2,"01:30:16",1
"20/06/16","01:50",0.0,19.6,88.8,998.6,289.7,0.5,1.1,314.4,0.00,17.7,23.1,"01:48:32",1
"20/06/16","02:00",0.0,19.8,89.0,998.6,329.4,1.0,1.7,321.7,0.00,18.0,23.1,"01:52:16",1
"20/06/16","02:10",0.0,19.6,89.2,998.6,305.8,1.0,1.3,345.7,0.00,17.8,23.1,"02:00:56",1
"20/06/16","02:20",0.0,19.5,89.5,998.6,271.5,0.8,1.2,238.5,0.00,17.8,22.9,"02:18:16",1
"20/06/16","02:30",0.0,19.5,89.7,998.4,281.4,0.8,1.6,317.2,0.00,17.8,22.8,"02:29:28",1
"20/06/16","02:40",0.0,19.4,89.9,998.6,278.9,0.7,1.4,257.6,0.00,17.7,22.8,"02:39:52",1
"20/06/16","02:50",0.0,19.4,90.0,998.6,300.2,0.8,1.7,310.4,0.00,17.8,22.8,"02:49:28",1
"20/06/16","03:00",0.0,19.4,90.1,998.6,318.5,1.1,1.7,325.6,0.00,17.8,22.8,"02:53:12",1
"20/06/16","03:10",0.0,19.4,90.2,998.9,333.3,0.8,1.3,329.4,0.00,17.8,22.6,"03:07:20",1
"20/06/16","03:20",0.0,19.4,90.4,998.6,322.2,1.5,3.1,304.0,0.00,17.8,22.6,"03:12:08",1
"20/06/16","03:30",0.0,19.4,90.5,998.4,323.7,1.2,2.0,312.7,0.00,17.8,22.7,"03:24:08",1
"20/06/16","03:40",0.0,19.4,90.7,998.6,323.1,1.5,2.2,307.5,0.00,17.9,22.5,"03:34:48",1
"20/06/16","03:50",0.0,19.4,90.7,998.6,323.6,1.5,2.2,339.8,0.00,17.9,22.2,"03:42:48",1
"20/06/16","04:00",0.0,19.3,90.8,998.6,322.7,1.1,2.0,331.6,0.00,17.8,22.4,"03:53:36",1
"20/06/16","04:10",0.0,19.2,91.0,998.6,325.3,1.2,3.1,315.3,0.00,17.7,22.3,"04:09:52",1
"20/06/16","04:20",0.0,19.4,91.1,998.6,316.9,1.7,2.6,326.3,0.00,18.0,22.2,"04:10:48",1
"20/06/16","04:30",0.0,19.5,91.1,998.9,314.2,1.8,3.5,336.1,0.00,18.0,22.2,"04:23:28",1
"20/06/16","04:40",0.0,19.5,91.2,999.1,309.0,2.0,3.3,331.6,0.00,18.1,22.2,"04:35:36",1
"20/06/16","04:50",0.0,19.6,91.3,998.6,332.1,2.0,3.6,329.7,0.00,18.2,22.1,"04:41:12",1
"20/06/16","05:00",0.0,19.6,91.2,999.1,321.0,1.2,2.4,334.6,0.00,18.2,22.1,"04:50:40",1
"20/06/16","05:10",0.0,19.4,91.3,999.1,343.9,1.1,2.5,348.8,0.00,18.0,22.2,"05:07:36",1
"20/06/16","05:20",0.0,19.5,91.4,999.1,329.9,1.3,2.6,335.6,0.00,18.1,22.2,"05:16:16",1
"20/06/16","05:30",0.0,19.7,91.5,998.9,328.9,1.3,2.2,338.8,0.01,18.3,22.1,"05:20:16",1
"20/06/16","05:40",0.0,19.9,91.5,999.1,337.2,1.0,1.4,349.4,0.02,18.5,22.1,"05:34:48",1
"20/06/16","05:50",0.0,20.0,91.5,998.9,326.8,0.8,1.7,338.9,0.02,18.6,22.1,"05:42:08",1
"20/06/16","06:00",0.0,20.2,91.4,999.3,300.5,0.8,1.2,307.8,0.02,18.8,22.2,"05:52:48",1
"20/06/16","06:10",0.0,20.3,91.3,999.1,265.0,0.6,1.4,248.4,0.03,18.9,22.2,"06:08:56",1
"20/06/16","06:20",0.0,20.5,91.4,999.3,293.2,0.7,1.1,320.5,0.04,19.1,22.2,"06:19:20",1
"20/06/16","06:30",0.0,20.7,91.3,999.3,298.5,0.8,1.3,320.4,0.05,19.3,22.2,"06:26:32",1
"20/06/16","06:40",0.0,20.8,91.2,999.3,313.0,1.0,1.7,338.0,0.06,19.4,22.2,"06:35:52",1
"20/06/16","06:50",0.0,20.8,91.0,999.3,272.3,0.6,1.7,338.5,0.07,19.3,22.3,"06:47:28",1
"20/06/16","07:00",0.0,21.1,90.7,999.3,280.5,0.6,1.8,341.2,0.07,19.6,22.5,"06:56:00",1
"20/06/16","07:10",0.0,21.3,90.5,999.6,321.4,0.8,2.1,337.5,0.10,19.7,22.5,"07:02:24",1
"20/06/16","07:20",0.0,21.8,90.2,999.1,282.2,0.5,1.4,279.3,0.12,20.2,22.6,"07:11:20",1
"20/06/16","07:30",0.0,22.2,89.3,999.1,214.1,0.6,1.1,210.9,0.17,20.4,22.8,"07:22:24",1
"20/06/16","07:40",0.0,22.8,88.3,998.9,347.1,0.3,1.4,341.5,0.17,20.8,22.8,"07:38:48",1
"20/06/16","07:50",0.0,23.0,86.4,999.3,5.4,0.7,2.1,325.7,0.19,20.6,22.9,"07:49:04",1
"20/06/16","08:00",0.0,23.5,84.4,999.1,315.1,1.0,1.6,339.0,0.23,20.8,23.3,"07:59:36",1
"20/06/16","08:10",0.0,24.0,81.3,998.9,312.0,1.1,1.8,349.3,0.27,20.6,23.2,"08:02:24",1
"20/06/16","08:20",0.0,24.5,78.7,998.6,344.3,0.8,1.8,341.0,0.23,20.6,23.5,"08:18:40",1
"20/06/16","08:30",0.0,25.0,76.9,998.2,232.1,0.6,2.0,326.5,0.27,20.7,23.5,"08:20:24",1
"20/06/16","08:40",0.0,25.3,75.3,997.7,232.4,0.7,1.3,230.7,0.26,20.7,23.9,"08:31:12",1
"20/06/16","08:50",0.0,25.3,74.6,997.7,195.2,1.2,2.6,216.2,0.25,20.5,24.0,"08:42:56",1
"20/06/16","09:00",0.0,25.9,74.0,997.7,257.2,0.5,1.4,205.0,0.25,21.0,24.1,"08:50:40",1
"20/06/16","09:10",0.0,26.1,72.5,997.4,315.1,0.6,1.9,356.4,0.30,20.8,24.4,"09:08:24",1
"20/06/16","09:20",0.0,26.4,71.0,997.4,141.5,0.7,1.4,136.6,0.27,20.8,24.5,"09:10:56",1
"20/06/16","09:30",0.0,26.6,71.2,997.4,246.2,0.7,2.1,118.6,0.36,21.0,24.9,"09:28:18",1
"20/06/16","09:40",0.0,27.1,69.4,997.7,217.9,0.8,2.6,353.1,0.46,21.1,25.0,"09:39:04",1
"20/06/16","09:50",0.0,27.9,68.0,997.7,341.6,0.7,1.4,357.2,0.52,21.5,25.4,"09:43:12",1
"20/06/16","10:00",0.0,28.3,66.0,997.9,187.4,0.8,2.9,127.8,0.44,21.4,25.7,"09:59:52",1
"20/06/16","10:10",0.0,28.2,66.1,997.7,155.9,1.2,3.3,120.2,0.55,21.3,25.6,"10:02:40",1
"20/06/16","10:20",0.0,28.3,63.9,997.9,187.0,1.8,4.2,197.4,0.58,20.9,26.2,"10:18:40",1
"20/06/16","10:30",0.0,27.9,63.7,997.4,186.2,1.6,3.6,207.0,0.37,20.4,26.4,"10:28:40",1
"20/06/16","10:40",0.0,28.5,58.9,997.7,232.2,1.7,4.0,227.4,0.55,19.7,26.7,"10:32:56",1
"20/06/16","10:50",0.0,28.9,55.6,997.2,237.3,2.0,4.0,227.5,0.59,19.2,26.8,"10:47:52",1
"20/06/16","11:00",0.0,29.0,51.9,997.2,229.7,2.2,5.6,214.0,0.60,18.2,27.2,"10:58:24",1
"20/06/16","11:10",0.0,29.7,52.9,997.0,229.5,2.5,5.7,206.3,0.61,19.1,27.4,"11:01:44",1
"20/06/16","11:20",0.0,29.5,52.6,996.7,232.3,2.0,5.7,229.2,0.50,18.8,27.6,"11:12:32",1
"20/06/16","11:30",0.0,29.8,49.5,997.2,259.5,1.7,4.0,224.8,0.62,18.1,27.7,"11:23:52",1
"20/06/16","11:40",0.0,30.1,47.3,997.4,321.6,1.5,3.4,336.3,0.67,17.7,28.1,"11:38:16",1
"20/06/16","11:50",0.0,30.9,48.1,997.4,239.3,1.0,3.1,220.3,0.62,18.7,28.3,"11:45:28",1
"20/06/16","12:00",0.0,30.8,46.5,997.2,265.7,1.5,2.8,350.2,0.61,18.1,28.4,"11:54:32",1
"20/06/16","12:10",0.0,31.2,49.6,997.2,235.3,1.2,2.5,228.8,0.65,19.5,28.7,"12:02:00",1
"20/06/16","12:20",0.0,31.1,45.2,997.4,255.0,1.5,3.4,236.0,0.53,17.9,28.8,"12:10:08",1
"20/06/16","12:30",0.0,31.2,47.7,997.2,316.5,1.2,4.4,359.3,0.56,18.8,29.0,"12:22:00",1
"20/06/16","12:40",0.0,30.8,44.2,997.0,286.1,1.2,2.7,293.4,0.38,17.3,29.2,"12:33:44",1
"20/06/16","12:50",0.0,30.6,46.1,997.2,228.9,1.3,3.1,230.1,0.42,17.7,29.2,"12:40:32",1
"20/06/16","13:00",0.0,30.6,45.4,997.0,263.0,1.6,3.5,313.3,0.47,17.5,29.1,"12:52:08",1
"20/06/16","13:10",0.0,30.1,45.1,996.5,242.6,1.3,2.7,313.3,0.20,16.9,29.1,"13:09:20",1
"20/06/16","13:20",0.0,29.9,45.8,996.3,254.2,1.1,2.4,241.0,0.14,17.0,28.8,"13:13:28",1
"20/06/16","13:30",0.0,29.6,48.9,996.3,270.7,1.5,3.4,243.8,0.17,17.8,28.8,"13:21:04",1
"20/06/16","13:40",0.0,29.7,48.0,997.0,255.5,1.1,3.7,241.5,0.18,17.6,28.5,"13:30:24",1
"20/06/16","13:50",0.0,29.2,48.2,996.5,316.3,1.2,3.2,203.8,0.07,17.2,28.5,"13:43:44",1
"20/06/16","14:00",0.0,29.3,51.1,996.0,245.2,1.1,3.1,189.3,0.16,18.2,28.3,"13:59:28",1
"20/06/16","14:10",0.0,29.3,52.1,996.3,225.6,2.5,6.4,229.6,0.23,18.5,28.2,"14:02:40",1
"20/06/16","14:20",0.0,28.7,50.0,995.8,240.3,2.0,4.4,221.3,0.08,17.3,27.8,"14:12:56",1
"20/06/16","14:30",0.0,28.4,50.0,995.8,234.4,1.8,5.0,227.3,0.10,17.0,27.9,"14:22:08",1
"20/06/16","14:40",0.0,29.5,46.6,995.8,232.2,2.6,5.5,225.3,0.44,16.9,27.9,"14:34:32",1
"20/06/16","14:50",0.0,28.9,48.3,995.6,233.8,2.0,4.3,231.7,0.16,16.9,27.9,"14:40:08",1
"20/06/16","15:00",0.0,29.1,49.5,995.6,207.3,1.6,2.8,205.6,0.22,17.5,27.7,"14:51:52",1
"20/06/16","15:10",0.0,28.9,49.6,995.6,197.9,1.2,3.4,193.5,0.12,17.4,27.7,"15:02:32",1
"20/06/16","15:20",0.0,28.2,52.3,995.8,122.4,0.7,2.0,193.0,0.04,17.5,27.3,"15:15:04",1
"20/06/16","15:30",0.0,27.4,57.6,995.6,89.7,1.1,3.1,118.8,0.00,18.3,27.5,"15:20:08",1
"20/06/16","15:40",0.0,27.0,59.5,996.0,237.2,0.6,1.7,268.3,0.00,18.5,27.2,"15:39:20",1
"20/06/16","15:50",0.0,26.3,62.6,997.0,252.3,2.2,4.1,229.9,0.00,18.6,27.2,"15:45:20",1
"20/06/16","16:00",0.0,23.6,70.6,997.2,211.6,3.2,7.8,221.4,0.01,18.0,26.8,"15:53:12",1
"20/06/16","16:10",0.0,23.2,76.3,997.2,349.4,0.7,3.3,233.1,0.02,18.8,26.8,"16:00:48",1
"20/06/16","16:20",0.0,23.4,78.8,997.2,45.5,0.8,1.8,10.2,0.10,19.6,26.6,"16:11:04",1
"20/06/16","16:30",0.0,23.8,79.5,997.2,151.9,0.6,1.8,128.8,0.07,20.1,26.7,"16:25:04",1
"20/06/16","16:40",0.0,23.9,79.3,997.4,209.8,0.5,1.2,191.5,0.05,20.1,26.1,"16:34:16",1
"20/06/16","16:50",0.0,24.2,79.6,997.2,280.4,0.7,1.1,253.6,0.03,20.5,26.5,"16:46:32",1
"20/06/16","17:00",0.0,24.1,80.1,997.7,261.3,0.8,1.6,234.4,0.05,20.5,26.1,"16:57:44",1
"20/06/16","17:10",0.0,23.9,80.2,997.9,255.1,1.0,1.8,223.9,0.03,20.3,26.2,"17:08:16",1
"20/06/16","17:20",0.0,23.9,80.6,997.9,261.8,1.0,1.9,242.5,0.02,20.4,26.0,"17:17:28",1
"20/06/16","17:30",0.0,24.0,81.1,998.2,268.9,0.7,1.2,284.4,0.03,20.6,26.2,"17:25:04",1
"20/06/16","17:40",0.0,23.9,81.7,997.9,278.4,1.0,3.5,346.8,0.02,20.6,26.2,"17:30:02",1
"20/06/16","17:50",0.0,23.7,82.0,997.4,313.8,1.2,3.5,335.1,0.03,20.5,26.0,"17:40:08",1
"20/06/16","18:00",0.0,24.1,81.1,997.9,336.4,1.2,2.5,347.6,0.04,20.7,25.8,"17:58:48",1
"20/06/16","18:10",0.0,24.1,76.3,997.9,347.5,1.7,3.5,341.2,0.03,19.7,25.9,"18:08:56",1
"20/06/16","18:20",0.0,24.8,67.5,998.4,347.5,1.7,4.1,315.1,0.02,18.4,25.6,"18:19:28",1
"20/06/16","18:30",0.0,24.9,63.9,998.6,338.2,2.0,3.2,344.4,0.01,17.6,25.7,"18:20:16",1
"20/06/16","18:40",0.0,24.9,64.2,998.9,345.6,1.7,2.8,336.0,0.00,17.7,25.5,"18:35:44",1
"20/06/16","18:50",0.0,24.5,65.9,998.9,343.2,2.0,4.4,342.5,0.00,17.8,25.3,"18:43:36",1
"20/06/16","19:00",0.0,24.2,66.4,998.9,356.5,1.8,4.7,353.4,0.00,17.6,25.5,"18:58:56",1
"20/06/16","19:10",0.0,24.0,67.0,999.3,345.8,1.8,3.7,351.3,0.00,17.5,25.2,"19:08:00",1
"20/06/16","19:20",0.0,23.5,68.0,999.1,334.5,1.8,3.1,333.4,0.00,17.3,25.1,"19:17:52",1
"20/06/16","19:30",0.0,23.1,68.2,999.3,296.1,1.7,3.5,333.9,0.00,17.0,24.9,"19:28:56",1
"20/06/16","19:40",0.0,22.8,67.2,999.3,322.7,3.0,5.9,332.2,0.00,16.4,24.8,"19:31:44",1
"20/06/16","19:50",0.0,22.4,66.7,999.8,323.6,3.2,5.7,330.5,0.00,15.9,24.6,"19:41:44",1
"20/06/16","20:00",0.0,22.2,67.2,999.6,319.2,2.8,6.2,332.8,0.00,15.9,24.3,"19:59:04",1
"20/06/16","20:10",0.0,21.9,68.3,999.6,334.7,3.2,6.0,339.7,0.00,15.8,24.3,"20:06:00",1
"20/06/16","20:20",0.0,21.6,69.2,1000.3,325.2,2.5,4.7,315.8,0.00,15.8,24.3,"20:16:00",1
"20/06/16","20:30",0.0,21.5,70.0,1000.0,324.9,2.2,4.1,341.8,0.00,15.8,24.1,"20:28:40",1
"20/06/16","20:40",0.0,21.4,70.7,1000.0,330.9,2.6,4.4,324.7,0.00,15.9,24.0,"20:36:40",1
"20/06/16","20:50",0.0,21.3,71.3,1000.3,331.1,2.5,5.2,333.1,0.00,15.9,23.7,"20:40:02",1
"20/06/16","21:00",0.0,21.1,71.8,1000.3,337.5,2.7,4.9,334.6,0.00,15.9,23.5,"20:57:36",1
"20/06/16","21:10",0.0,21.0,72.1,1000.0,332.9,2.1,4.1,343.6,0.00,15.8,23.7,"21:04:16",1
"20/06/16","21:20",0.0,21.0,72.4,1000.8,341.8,2.7,6.2,337.6,0.00,15.9,23.4,"21:12:48",1
"20/06/16","21:30",0.0,21.0,72.2,1000.5,335.9,2.2,5.6,347.3,0.00,15.8,23.3,"21:22:08",1
"20/06/16","21:40",0.0,20.8,72.7,1000.3,340.2,1.6,3.6,352.8,0.00,15.8,23.2,"21:34:56",1
"20/06/16","21:50",0.0,20.6,73.3,1000.8,350.0,1.3,3.7,344.6,0.00,15.7,23.1,"21:48:56",1
"20/06/16","22:00",0.0,20.6,74.0,1001.0,11.7,1.5,2.8,3.9,0.00,15.8,23.2,"21:50:40",1
"20/06/16","22:10",0.0,20.4,74.5,1000.8,0.4,1.6,3.1,13.2,0.00,15.8,22.8,"22:07:52",1
"20/06/16","22:20",0.0,20.3,74.9,1001.0,345.7,1.5,3.9,324.0,0.00,15.7,22.8,"22:18:08",1
"20/06/16","22:30",0.0,19.9,75.9,1001.2,297.9,1.1,2.5,312.1,0.00,15.6,22.7,"22:20:16",1
"20/06/16","22:40",0.0,19.4,77.2,1000.8,274.3,0.7,1.7,306.4,0.00,15.3,22.7,"22:34:40",1
"20/06/16","22:50",0.0,19.0,78.5,1001.0,292.8,1.0,1.4,327.6,0.00,15.2,22.7,"22:41:04",1
"20/06/16","23:00",0.0,18.7,79.9,1000.5,299.9,1.0,1.4,325.0,0.00,15.2,22.7,"22:56:56",1
"20/06/16","23:10",0.0,18.3,80.9,1001.0,294.6,0.7,1.8,324.0,0.00,15.0,22.5,"23:01:04",1
"20/06/16","23:20",0.0,18.2,82.0,1000.8,303.7,0.3,1.2,329.1,0.00,15.1,22.4,"23:17:36",1
"20/06/16","23:30",0.0,18.3,82.9,1000.8,337.3,1.0,1.7,333.3,0.00,15.4,22.5,"23:27:28",1
"20/06/16","23:40",0.0,18.2,84.0,1001.2,331.9,1.3,2.0,330.3,0.00,15.5,22.4,"23:34:08",1
"20/06/16","23:50",0.0,18.1,84.8,1001.0,329.3,1.5,2.2,339.5,0.00,15.5,22.3,"23:45:12",1
"20/06/16","24:00",0.0,18.1,85.4,1001.0,322.3,1.2,3.3,327.8,0.00,15.7,22.1,"23:53:52",1
